1536372000.52,41643,17.25,74042.5,1.11,-10.49,-10.05,0,*70
1536372001.76,41644,17.31,74044.8,1.11,-10.67,-10.19,0,*76
1536372003.02,41645,17.31,74042.0,1.09,-10.79,-10.27,0,*7C
1536372004.25,41646,17.31,74044.3,1.11,-10.75,-10.23,0,*7E
1536372005.49,41647,17.25,74040.8,1.11,-10.67,-10.09,0,*74
1536372006.76,41648,17.25,74040.0,1.09,-10.67,-10.15,0,*7F
1536372007.99,41649,17.25,74038.3,1.11,-10.67,-10.09,0,*7A
1536372009.25,41650,17.25,74040.8,1.09,-10.79,-10.23,0,*7C
1536372010.48,41651,17.25,74038.5,1.11,-10.79,-10.31,0,*77
1536372011.72,41652,17.31,74042.8,1.11,-10.75,-10.19,0,*72
1536372012.95,41653,17.25,74044.3,1.09,-10.85,-10.27,0,*78
1536372014.18,41654,17.31,74044.0,1.09,-10.35,-9.75,0,*4B
1536372015.38,41655,17.31,74046.0,1.11,-10.53,-9.97,0,*4F
1536372016.61,41656,17.25,74040.0,1.11,-10.63,-10.05,0,*7C
1536372017.87,41657,17.25,74044.3,1.09,-10.79,-10.35,0,*7C
1536372019.11,41658,17.31,74040.8,1.11,-10.63,-10.05,0,*72
1536372020.3,41659,17.25,74044.3,1.11,-10.53,-9.97,0,*43
1536372021.53,41660,17.25,74038.0,1.11,-10.79,-10.23,0,*76
1536372022.77,41661,17.25,74042.3,1.11,-10.75,-10.31,0,*78
1536372024.0,41662,17.25,74042.0,1.11,-10.67,-10.09,0,*73
1536372025.23,41663,17.25,74042.5,1.11,-10.45,-9.83,0,*48
1536372026.46,41664,17.25,74042.3,1.09,-10.53,-10.01,0,*73
1536372027.69,41665,17.25,74046.0,1.09,-10.57,-10.15,0,*73
1536372028.93,41666,17.25,74044.5,1.11,-10.67,-10.05,0,*7B
1536372030.13,41667,17.25,74046.8,1.11,-10.53,-10.05,0,*7D
1536372031.39,41668,17.25,74044.8,1.09,-10.79,-10.27,0,*73
1536372032.65,41669,17.25,74042.0,1.09,-10.67,-10.09,0,*71
1536372033.88,41670,17.25,74044.3,1.11,-10.63,-10.05,0,*78
1536372035.15,41671,17.25,74046.3,1.09,-10.71,-10.27,0,*73
1536372036.41,41672,17.25,74044.3,1.09,-10.67,-10.15,0,*76
1536372037.68,41673,17.25,74046.3,1.09,-10.71,-10.27,0,*71
1536372038.94,41674,17.31,74046.0,1.09,-10.71,-10.15,0,*77
1536372040.17,41675,17.25,74046.3,1.09,-10.85,-10.27,0,*7C
1536372041.41,41676,17.25,74042.8,1.11,-10.79,-10.31,0,*72
1536372042.66,41677,17.31,74046.8,1.09,-10.79,-10.23,0,*79
1536372043.92,41678,17.25,74040.8,1.09,-10.67,-10.09,0,*71
1536372045.18,41679,17.25,74040.8,1.09,-10.79,-10.23,0,*77
1536372046.43,41680,17.31,74044.5,1.09,-10.35,-9.83,0,*4B
1536372047.63,41681,17.25,74044.3,1.11,-10.49,-10.05,0,*7E
1536372048.9,41682,17.25,74042.8,1.09,-10.71,-10.15,0,*7E
1536372050.16,41683,17.25,74042.5,1.09,-10.67,-10.23,0,*7D
1536372051.39,41684,17.25,74042.8,1.09,-10.57,-10.15,0,*7C
1536372052.63,41685,17.31,74046.0,1.07,-10.57,-10.05,0,*72
1536372053.86,41686,17.31,74046.0,1.07,-10.57,-10.05,0,*71
1536372055.13,41687,17.31,74044.5,1.07,-10.75,-10.27,0,*70
1536372056.38,41688,17.31,74046.8,1.09,-10.71,-10.23,0,*71
1536372057.62,41689,17.25,74042.3,1.09,-10.85,-10.27,0,*7F
1536372058.83,41690,17.25,74046.0,1.11,-10.85,-10.27,0,*7E
1536372060.09,41691,17.25,74044.0,1.09,-10.79,-10.27,0,*75
1536372061.32,41692,17.25,74044.5,1.09,-10.57,-10.15,0,*7B
1536372062.58,41693,17.31,74044.5,1.09,-10.79,-10.27,0,*77
1536372063.85,41694,17.25,74044.3,1.07,-10.63,-10.19,0,*78
1536372065.12,41695,17.25,74044.0,1.07,-10.63,-10.19,0,*79
1536372066.36,41696,17.31,74044.5,1.07,-10.57,-10.01,0,*74
1536372067.59,41697,17.25,74042.8,1.09,-10.53,-10.01,0,*7F
1536372068.86,41698,17.25,74044.8,1.07,-10.71,-10.15,0,*7B
1536372070.06,41699,17.25,74042.3,1.05,-10.57,-10.05,0,*7D
1536372071.32,41700,17.25,74044.3,1.07,-10.63,-10.05,0,*79
1536372072.59,41701,17.31,74044.0,1.07,-10.63,-10.01,0,*7C
1536372073.86,41702,17.25,74040.5,1.07,-10.63,-10.19,0,*76
1536372075.13,41703,17.25,74042.0,1.07,-10.75,-10.19,0,*70
1536372076.38,41704,17.25,74042.0,1.09,-10.41,-9.89,0,*4F
1536372077.64,41705,17.31,74046.3,1.07,-10.63,-10.05,0,*7C
1536372078.91,41706,17.25,74040.3,1.09,-10.67,-10.15,0,*74
1536372080.17,41707,17.25,74042.8,1.07,-10.71,-10.15,0,*7C
1536372081.41,41708,17.25,74042.3,1.07,-10.57,-10.15,0,*77
1536372082.65,41709,17.25,74044.5,1.07,-10.53,-10.01,0,*77
1536372083.92,41710,17.25,74046.0,1.09,-10.41,-9.83,0,*40
1536372085.15,41711,17.25,74042.3,1.09,-10.53,-10.01,0,*70
1536372086.41,41712,17.25,74044.3,1.07,-10.63,-10.05,0,*7A
1536372087.68,41713,17.25,74044.0,1.07,-10.71,-10.27,0,*78
1536372088.9,41714,17.25,74044.5,1.07,-10.53,-9.89,0,*43
1536372090.14,41715,17.25,74044.0,1.07,-10.57,-10.05,0,*7A
1536372091.34,41716,17.25,74042.3,1.05,-10.53,-10.01,0,*7B
1536372092.57,41717,17.25,74044.3,1.07,-10.53,-9.93,0,*4B
1536372093.83,41718,17.25,74042.5,1.07,-10.63,-10.05,0,*70
1536372095.05,41719,17.25,74040.5,1.07,-10.45,-9.89,0,*49
1536372096.28,41720,17.25,74044.3,1.07,-10.45,-9.89,0,*43
1536372097.51,41721,17.25,74042.8,1.07,-10.45,-9.93,0,*49
1536372098.73,41722,17.25,74038.8,1.07,-10.45,-9.79,0,*4E
1536372099.96,41723,17.25,74042.3,1.09,-10.23,-9.75,0,*4D
1536372101.18,41724,17.25,74042.3,1.09,-10.23,-9.71,0,*4E
1536372102.44,41725,17.25,74042.8,1.09,-10.35,-9.83,0,*45
1536372103.68,41726,17.25,74040.3,1.09,-10.41,-9.89,0,*4F
1536372104.88,41727,17.25,74042.8,1.11,-10.45,-9.97,0,*4C
1536372106.11,41728,17.31,74046.5,1.09,-10.27,-9.75,0,*42
1536372107.36,41729,17.25,74040.8,1.09,-10.41,-9.89,0,*40
1536372108.61,41730,17.25,74042.8,1.09,-10.41,-9.75,0,*4B
1536372109.86,41731,17.25,74040.0,1.09,-10.15,-9.61,0,*4E
1536372111.06,41732,17.25,74042.3,1.11,-10.31,-9.79,0,*4B
1536372112.26,41733,17.25,74044.3,1.11,-10.31,-9.79,0,*4A
1536372113.54,41734,17.31,74046.5,1.09,-10.41,-9.83,0,*46
1536372114.74,41735,17.25,74040.5,1.11,-10.45,-9.79,0,*4F
1536372115.96,41736,17.25,74036.5,1.11,-10.23,-9.57,0,*40
1536372117.21,41737,17.25,74042.0,1.09,-10.01,-9.53,0,*4C
1536372118.42,41738,17.25,74040.0,1.11,-9.97,-9.57,0,*79
1536372119.64,41739,17.25,74036.8,1.09,-10.09,-9.75,0,*4E
1536372120.83,41740,17.25,74038.3,1.11,-9.97,-9.67,0,*75
1536372122.05,41741,17.25,74040.0,1.09,-10.01,-9.75,0,*49
1536372123.24,41742,17.25,74040.0,1.11,-9.97,-9.67,0,*77
1536372124.43,41743,17.25,74042.0,1.11,-9.97,-9.67,0,*76
1536372125.68,41744,17.25,74038.8,1.09,-9.71,-9.45,0,*70
1536372126.9,41745,17.25,74040.5,1.11,-9.83,-9.71,0,*72
1536372128.11,41746,17.25,74042.5,1.11,-10.05,-9.83,0,*4A
1536372129.31,41747,17.25,74044.0,1.11,-10.09,-9.97,0,*42
1536372130.52,41748,17.25,74042.8,1.09,-9.89,-9.71,0,*7C
1536372131.75,41749,17.31,74044.3,1.09,-10.15,-9.75,0,*44
1536372132.97,41750,17.25,74042.8,1.11,-10.31,-9.83,0,*4A
1536372134.17,41751,17.25,74042.0,1.11,-10.45,-9.97,0,*4D
1536372135.37,41752,17.25,74042.5,1.11,-10.53,-10.09,0,*76
1536372136.57,41753,17.25,74038.8,1.11,-10.31,-9.79,0,*4C
1536372137.8,41754,17.31,74042.5,1.11,-10.19,-9.57,0,*4D
1536372139.0,41755,17.25,74042.5,1.11,-10.35,-9.71,0,*46
1536372140.23,41756,17.25,74040.5,1.09,-10.35,-9.71,0,*4C
1536372141.44,41757,17.25,74042.0,1.11,-10.35,-9.71,0,*44
1536372142.67,41758,17.25,74044.3,1.11,-10.63,-10.05,0,*73
1536372143.87,41759,17.25,74040.8,1.11,-10.53,-9.97,0,*42
1536372145.1,41760,17.25,74042.8,1.11,-10.63,-10.05,0,*78
1536372146.3,41761,17.25,74042.3,1.11,-10.49,-9.93,0,*46
1536372147.5,41762,17.25,74042.0,1.11,-10.49,-9.97,0,*41
1536372148.72,41763,17.25,74036.8,1.11,-10.45,-9.83,0,*49
1536372149.95,41764,17.31,74040.3,1.11,-10.45,-9.83,0,*4E
1536372151.15,41765,17.25,74034.0,1.11,-10.45,-9.93,0,*4E
1536372152.35,41766,17.25,74034.8,1.11,-10.49,-9.97,0,*45
1536372153.55,41767,17.25,74036.8,1.11,-10.53,-10.05,0,*7C
1536372154.78,41768,17.25,74040.0,1.09,-10.57,-10.09,0,*72
1536372155.98,41769,17.25,74040.8,1.11,-10.49,-9.93,0,*4E
1536372157.21,41770,17.25,74042.3,1.09,-10.57,-10.01,0,*73
1536372158.43,41771,17.31,74048.3,1.09,-10.53,-9.89,0,*4E
1536372159.66,41772,17.31,74046.8,1.09,-10.53,-10.01,0,*75
1536372160.89,41773,17.25,74042.3,1.11,-10.35,-9.83,0,*4F
1536372162.12,41774,17.31,74046.0,1.09,-10.57,-10.01,0,*77
1536372163.32,41775,17.25,74040.8,1.11,-10.53,-10.05,0,*7F
1536372164.54,41776,17.25,74040.5,1.09,-10.53,-9.97,0,*46
1536372165.77,41777,17.31,74044.3,1.09,-10.57,-9.97,0,*43
1536372167.03,41778,17.31,74046.8,1.09,-10.67,-10.01,0,*78
1536372168.25,41779,17.25,74042.3,1.09,-10.49,-9.89,0,*4D
1536372169.52,41780,17.25,74044.5,1.09,-10.67,-10.01,0,*7F
1536372170.75,41781,17.25,74044.5,1.09,-10.57,-10.09,0,*75
1536372171.98,41782,17.25,74040.0,1.09,-10.57,-10.15,0,*7B
1536372173.22,41783,17.31,74044.0,1.11,-10.75,-10.09,0,*7E
1536372174.48,41784,17.25,74044.5,1.09,-10.79,-10.15,0,*71
1536372175.69,41785,17.25,74042.0,1.09,-10.53,-9.89,0,*45
1536372176.92,41786,17.25,74042.0,1.09,-10.35,-9.75,0,*45
1536372178.17,41787,17.25,74044.8,1.09,-10.35,-9.61,0,*41
1536372179.4,41788,17.25,74044.8,1.09,-10.27,-9.75,0,*48
1536372180.62,41789,17.25,74042.5,1.09,-10.49,-9.89,0,*42
1536372181.84,41790,17.25,74044.3,1.09,-10.49,-9.97,0,*45
1536372183.1,41791,17.25,74044.8,1.09,-10.67,-10.09,0,*77
1536372184.32,41792,17.31,74046.8,1.09,-10.49,-9.89,0,*48
1536372185.54,41793,17.31,74046.3,1.11,-10.45,-9.83,0,*46
1536372186.79,41794,17.25,74040.0,1.09,-10.23,-9.57,0,*41
1536372188.03,41795,17.31,74044.0,1.09,-10.09,-9.53,0,*4C
1536372189.28,41796,17.25,74040.0,1.09,-10.01,-9.45,0,*40
1536372190.51,41797,17.31,74044.8,1.11,-10.19,-9.49,0,*4D
1536372191.73,41798,17.25,74042.0,1.11,-10.23,-9.57,0,*44
1536372192.95,41799,17.25,74042.3,1.11,-10.31,-9.57,0,*46
1536372194.15,41800,17.25,74040.5,1.11,-10.45,-9.71,0,*4E
1536372195.35,41801,17.25,74040.3,1.11,-10.23,-9.67,0,*48
1536372196.55,41802,17.25,74040.3,1.11,-10.31,-9.79,0,*47
1536372197.75,41803,17.25,74040.3,1.11,-10.45,-9.79,0,*45
1536372199.02,41804,17.25,74042.0,1.09,-10.67,-10.01,0,*7C
1536372200.28,41805,17.31,74044.3,1.09,-10.71,-10.15,0,*7F
1536372201.55,41806,17.25,74044.3,1.09,-10.71,-10.15,0,*7C
1536372202.78,41807,17.25,74044.0,1.11,-10.63,-10.05,0,*76
1536372204.01,41808,17.25,74044.3,1.09,-10.27,-9.71,0,*4B
1536372205.25,41809,17.25,74040.5,1.09,-10.49,-9.83,0,*4F
1536372206.45,41810,17.25,74044.0,1.11,-10.53,-9.97,0,*40
1536372207.71,41811,17.31,74046.5,1.09,-10.71,-10.15,0,*7A
1536372208.97,41812,17.25,74040.3,1.09,-10.71,-10.23,0,*7C
1536372210.19,41813,17.25,74042.8,1.09,-10.57,-9.97,0,*4E
1536372211.41,41814,17.25,74044.5,1.09,-10.49,-9.89,0,*49
1536372212.65,41815,17.25,74044.3,1.09,-10.57,-10.01,0,*7F
1536372213.9,41816,17.25,74042.8,1.09,-10.67,-9.97,0,*48
1536372215.13,41817,17.25,74042.0,1.09,-10.53,-10.01,0,*79
1536372216.35,41818,17.25,74042.3,1.09,-10.53,-9.97,0,*41
1536372217.58,41819,17.25,74046.3,1.09,-10.53,-10.01,0,*77
1536372218.83,41820,17.25,74046.3,1.09,-10.41,-9.97,0,*49
1536372220.06,41821,17.25,74046.8,1.09,-10.53,-10.01,0,*7C
1536372221.31,41822,17.25,74044.3,1.09,-10.41,-9.97,0,*4B
1536372222.56,41823,17.25,74044.3,1.09,-10.41,-9.97,0,*4A
1536372223.78,41824,17.25,74042.3,1.09,-10.49,-9.97,0,*45
1536372225.03,41825,17.25,74044.5,1.09,-10.41,-9.97,0,*4C
1536372226.26,41826,17.25,74042.8,1.09,-10.57,-9.97,0,*48
1536372227.51,41827,17.25,74042.5,1.09,-10.41,-9.75,0,*42
1536372228.75,41828,17.25,74042.3,1.09,-10.09,-9.53,0,*45
1536372229.99,41829,17.25,74040.0,1.09,-9.97,-9.41,0,*78
1536372231.21,41830,17.25,74042.8,1.11,-10.15,-9.57,0,*4C
1536372232.44,41831,17.31,74046.5,1.09,-10.27,-9.71,0,*41
1536372233.69,41832,17.25,74042.3,1.09,-10.15,-9.53,0,*43
1536372234.94,41833,17.25,74042.8,1.09,-10.27,-9.61,0,*42
1536372236.17,41834,17.25,74038.0,1.09,-10.23,-9.71,0,*40
1536372237.39,41835,17.25,74042.5,1.09,-10.35,-9.75,0,*42
1536372238.64,41836,17.25,74044.0,1.09,-10.41,-9.97,0,*4E
1536372239.88,41837,17.25,74040.5,1.09,-10.57,-10.01,0,*7F
1536372241.1,41838,17.25,74042.0,1.09,-10.53,-9.97,0,*43
1536372242.33,41839,17.25,74040.0,1.09,-10.53,-10.01,0,*75
1536372243.55,41840,17.25,74042.5,1.09,-10.53,-9.97,0,*4C
1536372244.79,41841,17.25,74042.3,1.09,-10.27,-9.83,0,*4B
1536372246.06,41842,17.31,74046.5,1.07,-10.41,-10.01,0,*74
1536372247.29,41843,17.25,74040.5,1.07,-10.19,-9.79,0,*4F
1536372248.5,41844,17.25,74042.8,1.05,-10.57,-10.01,0,*77
1536372249.73,41845,17.25,74042.3,1.07,-10.53,-9.93,0,*43
1536372250.96,41846,17.25,74044.0,1.07,-10.31,-9.75,0,*4C
1536372252.19,41847,17.25,74042.3,1.05,-10.19,-9.61,0,*40
1536372253.44,41848,17.25,74042.0,1.07,-10.41,-9.79,0,*49
1536372254.7,41849,17.25,74040.0,1.07,-10.41,-9.79,0,*48
1536372255.95,41850,17.25,74040.0,1.07,-10.41,-9.79,0,*40
1536372257.21,41851,17.25,74042.8,1.07,-10.41,-9.75,0,*4D
1536372258.43,41852,17.25,74042.5,1.07,-10.53,-9.93,0,*45
1536372259.66,41853,17.25,74042.3,1.07,-10.45,-9.89,0,*48
1536372260.89,41854,17.25,74042.8,1.07,-10.57,-9.89,0,*4C
1536372262.13,41855,17.25,74042.3,1.07,-10.57,-10.01,0,*75
1536372263.37,41856,17.25,74042.3,1.07,-10.57,-10.01,0,*76
1536372264.64,41857,17.25,74044.3,1.07,-10.63,-10.19,0,*79
1536372265.9,41858,17.25,74044.5,1.07,-10.71,-10.01,0,*7C
1536372267.14,41859,17.25,74040.0,1.07,-10.57,-10.01,0,*79
1536372268.37,41860,17.25,74044.3,1.07,-10.45,-9.89,0,*48
1536372269.59,41861,17.25,74040.5,1.07,-10.45,-9.89,0,*49
1536372270.86,41862,17.25,74038.0,1.07,-10.63,-10.01,0,*76
1536372272.09,41863,17.25,74044.0,1.07,-10.57,-9.93,0,*43
1536372273.32,41864,17.25,74040.5,1.07,-10.31,-9.89,0,*4F
1536372274.54,41865,17.25,74042.5,1.05,-10.27,-9.61,0,*4D
1536372275.8,41866,17.25,74042.8,1.07,-10.41,-9.75,0,*49
1536372277.03,41867,17.25,74044.8,1.05,-10.41,-9.79,0,*46
1536372278.22,41868,17.25,74042.3,1.05,-10.53,-9.93,0,*4E
1536372279.48,41869,17.25,74040.0,1.07,-10.71,-10.05,0,*7A
1536372280.72,41870,17.25,74040.3,1.07,-10.57,-10.01,0,*72
1536372281.95,41871,17.25,74040.5,1.07,-10.45,-9.67,0,*48
1536372283.21,41872,17.25,74040.3,1.07,-10.41,-9.67,0,*4F
1536372284.43,41873,17.25,74040.0,1.07,-10.45,-9.79,0,*45
1536372285.66,41874,17.25,74042.0,1.07,-10.31,-9.75,0,*4D
1536372286.92,41875,17.25,74038.8,1.07,-10.41,-9.79,0,*47
1536372288.15,41876,17.25,74042.0,1.07,-10.31,-9.79,0,*43
1536372289.4,41877,17.25,74038.8,1.07,-10.41,-9.89,0,*4A
1536372290.62,41878,17.25,74040.0,1.07,-10.53,-9.89,0,*46
1536372291.89,41879,17.25,74042.3,1.07,-10.63,-10.15,0,*79
1536372293.16,41880,17.25,74040.3,1.07,-10.63,-10.01,0,*7A
1536372294.39,41881,17.25,74040.3,1.05,-10.63,-10.05,0,*7D
1536372295.66,41882,17.25,74040.8,1.07,-10.71,-10.15,0,*7E
1536372296.89,41883,17.25,74044.5,1.07,-10.45,-9.89,0,*45
1536372298.08,41884,17.25,74046.8,1.05,-10.53,-9.93,0,*4C
1536372299.29,41885,17.25,74042.0,1.05,-10.57,-10.01,0,*7A
1536372300.49,41886,17.25,74040.8,1.05,-10.45,-9.93,0,*49
1536372301.69,41887,17.25,74040.5,1.05,-10.57,-10.05,0,*7C
1536372302.96,41888,17.25,74042.8,1.07,-10.63,-10.01,0,*72
1536372304.16,41889,17.25,74040.8,1.05,-10.53,-9.93,0,*41
1536372305.35,41890,17.25,74042.0,1.05,-10.45,-9.89,0,*45
1536372306.55,41891,17.25,74040.5,1.05,-10.45,-9.89,0,*44
1536372307.75,41892,17.25,74038.5,1.05,-10.53,-10.01,0,*78
1536372309.02,41893,17.25,74040.3,1.07,-10.71,-10.05,0,*7F
1536372310.25,41894,17.25,74040.0,1.05,-10.63,-10.05,0,*79
1536372311.48,41895,17.25,74044.0,1.05,-10.71,-10.05,0,*7B
1536372312.69,41896,17.25,74042.3,1.05,-10.57,-10.01,0,*78
1536372313.88,41897,17.25,74042.8,1.05,-10.45,-9.89,0,*42
1536372315.11,41898,17.25,74044.8,1.07,-10.31,-9.75,0,*4F
1536372316.34,41899,17.25,74042.3,1.05,-10.41,-9.79,0,*47
1536372317.54,41900,17.25,74044.3,1.05,-10.53,-9.93,0,*41
1536372318.73,41901,17.25,74042.5,1.05,-10.45,-9.89,0,*4C
1536372319.96,41902,17.25,74046.3,1.05,-10.63,-10.05,0,*77
1536372321.19,41903,17.25,74044.8,1.03,-10.57,-9.97,0,*44
1536372322.41,41904,17.25,74044.0,1.03,-10.45,-9.79,0,*40
1536372323.63,41905,17.25,74044.8,1.01,-10.45,-9.83,0,*46
1536372324.86,41906,17.25,74040.8,1.03,-10.35,-9.79,0,*45
1536372326.06,41907,17.25,74042.0,1.05,-10.31,-9.75,0,*4A
1536372327.25,41908,17.25,74040.5,1.05,-10.53,-9.93,0,*49
1536372328.51,41909,17.25,74040.5,1.03,-10.67,-9.97,0,*4D
1536372329.73,41910,17.25,74042.0,1.03,-10.57,-9.97,0,*46
1536372330.97,41911,17.25,74042.0,1.03,-10.45,-9.83,0,*41
1536372332.22,41912,17.25,74042.3,1.03,-10.49,-9.83,0,*4E
1536372333.48,41913,17.25,74042.0,1.03,-10.63,-10.05,0,*71
1536372334.7,41914,17.25,74040.0,1.03,-10.49,-9.93,0,*49
1536372335.9,41915,17.25,74046.5,1.01,-10.57,-10.05,0,*72
1536372337.16,41916,17.25,74042.3,1.03,-10.63,-10.05,0,*74
1536372338.38,41917,17.25,74040.0,1.03,-10.57,-9.93,0,*45
1536372339.61,41918,17.25,74042.3,1.03,-10.57,-10.05,0,*7D
1536372340.87,41919,17.25,74042.5,1.03,-10.67,-10.09,0,*73
1536372342.07,41920,17.25,74046.5,1.01,-10.57,-9.97,0,*47
1536372343.29,41921,17.25,74040.8,1.03,-10.49,-9.97,0,*4B
1536372344.51,41922,17.25,74044.8,1.03,-10.49,-9.93,0,*4C
1536372345.73,41923,17.25,74040.0,1.03,-10.49,-9.97,0,*49
1536372346.95,41924,17.25,74046.8,1.03,-10.57,-9.97,0,*41
1536372348.18,41925,17.25,74040.5,1.03,-10.49,-9.93,0,*4B
1536372349.41,41926,17.25,74044.5,1.01,-10.67,-10.09,0,*7D
1536372350.66,41927,17.25,74046.5,1.03,-10.63,-9.97,0,*45
1536372351.86,41928,17.25,74046.8,1.01,-10.57,-9.93,0,*4B
1536372353.12,41929,17.25,74044.8,1.03,-10.67,-10.09,0,*70
1536372354.36,41930,17.25,74044.8,1.01,-10.67,-10.05,0,*76
1536372355.59,41931,17.25,74046.3,1.01,-10.63,-10.05,0,*73
1536372356.79,41932,17.25,74046.0,1.01,-10.57,-9.93,0,*40
1536372357.99,41933,17.25,74046.0,1.01,-10.49,-9.93,0,*4E
1536372359.19,41934,17.25,74042.8,1.01,-10.49,-9.93,0,*49
1536372360.41,41935,17.25,74046.0,1.03,-10.49,-9.93,0,*4A
1536372361.61,41936,17.25,74042.0,1.01,-10.57,-9.97,0,*40
1536372362.84,41937,17.25,74044.5,1.01,-10.63,-10.05,0,*75
1536372364.06,41938,17.25,74044.3,1.01,-10.45,-9.83,0,*48
1536372365.28,41939,17.25,74044.8,1.03,-10.45,-9.71,0,*46
1536372366.54,41940,17.25,74046.0,1.03,-10.19,-9.53,0,*41
1536372367.76,41941,17.25,74044.3,1.01,-10.45,-9.83,0,*46
1536372368.98,41942,17.25,74046.0,1.03,-10.35,-9.79,0,*45
1536372370.21,41943,17.25,74042.5,1.03,-10.23,-9.71,0,*4B
1536372371.45,41944,17.25,74046.5,1.03,-10.05,-9.49,0,*43
1536372372.68,41945,17.25,74042.3,1.03,-10.19,-9.71,0,*44
1536372373.9,41946,17.25,74046.0,1.03,-10.31,-9.71,0,*4D
1536372375.12,41947,17.25,74044.0,1.03,-10.45,-9.93,0,*43
1536372376.35,41948,17.25,74042.0,1.03,-10.23,-9.67,0,*47
1536372377.59,41949,17.25,74040.3,1.03,-10.45,-9.83,0,*4C
1536372378.84,41950,17.25,74040.5,1.03,-10.49,-9.83,0,*48
1536372380.06,41951,17.25,74044.0,1.03,-10.35,-9.67,0,*48
1536372381.31,41952,17.25,74042.0,1.03,-10.23,-9.61,0,*4A
1536372382.54,41953,17.25,74042.0,1.01,-10.19,-9.41,0,*42
1536372383.77,41954,17.25,74046.8,1.03,-9.97,-9.41,0,*79
1536372385.01,41955,17.25,74042.5,1.03,-10.05,-9.49,0,*43
1536372386.25,41956,17.25,74042.3,1.03,-9.97,-9.53,0,*78
1536372387.52,41957,17.25,74042.5,1.03,-9.83,-9.53,0,*7C
1536372388.75,41958,17.25,74042.8,1.03,-9.93,-9.41,0,*71
1536372389.97,41959,17.25,74040.8,1.03,-9.79,-9.23,0,*70
1536372391.23,41960,17.25,74040.5,1.03,-9.61,-9.11,0,*72
1536372392.44,41961,17.25,74046.3,1.03,-9.79,-9.23,0,*7B
1536372393.68,41962,17.25,74042.3,1.03,-9.93,-9.41,0,*78
1536372394.92,41963,17.25,74040.5,1.03,-9.79,-9.15,0,*7C
1536372396.14,41964,17.25,74042.5,1.03,-9.71,-8.97,0,*78
1536372397.33,41965,17.25,74042.0,1.05,-9.89,-9.05,0,*72
1536372398.56,41966,17.25,74046.5,1.03,-9.83,-9.23,0,*79
1536372399.82,41967,17.25,74042.5,1.03,-9.83,-9.15,0,*7D
1536372401.03,41968,17.25,74046.3,1.03,-9.67,-9.23,0,*7D
1536372402.25,41969,17.25,74040.8,1.03,-10.09,-9.71,0,*4B
1536372403.47,41970,17.25,74046.0,1.01,-10.19,-9.83,0,*4D
1536372404.72,41971,17.25,74044.8,1.03,-10.35,-9.83,0,*40
1536372405.95,41972,17.25,74042.8,1.03,-10.35,-9.79,0,*46
1536372407.18,41973,17.25,74042.5,1.03,-10.31,-9.71,0,*4B
1536372408.38,41974,17.25,74044.3,1.01,-10.57,-9.93,0,*42
1536372409.6,41975,17.25,74044.8,1.03,-10.49,-9.93,0,*4E
1536372410.82,41976,17.25,74046.5,1.03,-10.57,-9.97,0,*46
1536372412.07,41977,17.25,74040.5,1.03,-10.63,-9.97,0,*40
1536372413.3,41978,17.25,74046.3,1.01,-10.63,-9.93,0,*49
1536372414.5,41979,17.25,74044.0,1.01,-10.49,-9.93,0,*40
1536372415.7,41980,17.25,74044.8,1.01,-10.57,-9.93,0,*49
1536372416.93,41981,17.25,74042.5,1.01,-10.63,-9.93,0,*4F
1536372418.13,41982,17.25,74044.0,1.01,-10.49,-9.93,0,*44
1536372419.33,41983,17.25,74048.0,1.01,-10.57,-9.93,0,*4A
1536372420.53,41984,17.25,74046.3,1.01,-10.57,-9.97,0,*49
1536372421.73,41985,17.25,74046.0,1.01,-10.35,-9.71,0,*44
1536372422.95,41986,17.25,74044.8,1.01,-10.45,-9.83,0,*4D
1536372424.17,41987,17.25,74042.5,1.01,-10.45,-9.83,0,*4C
1536372425.41,41988,17.25,74046.5,1.01,-10.67,-10.05,0,*75
1536372426.64,41989,17.25,74044.8,1.01,-10.67,-10.05,0,*74
1536372427.87,41990,17.25,74046.0,1.01,-10.63,-9.93,0,*4F
1536372429.1,41991,17.25,74044.5,1.01,-10.63,-9.97,0,*4A
1536372430.3,41992,17.25,74046.0,1.01,-10.23,-9.67,0,*42
1536372431.54,41993,17.25,74046.8,0.99,-10.23,-9.57,0,*70
1536372432.79,41994,17.25,74044.8,0.99,-10.49,-9.83,0,*72
1536372434.0,41995,17.25,74044.3,0.99,-10.53,-9.89,0,*72
1536372435.2,41996,17.25,74048.0,1.01,-10.45,-9.71,0,*41
1536372436.43,41997,17.25,74044.0,1.01,-10.31,-9.61,0,*42
1536372437.66,41998,17.25,74044.8,1.01,-10.35,-9.53,0,*48
1536372438.88,41999,17.25,74046.0,1.01,-10.23,-9.41,0,*4D
1536372440.07,42000,17.25,74044.8,1.01,-9.97,-9.01,0,*74
1536372441.28,42001,17.25,74044.3,1.01,-9.93,-9.11,0,*70
1536372442.49,42002,17.25,74044.0,1.01,-9.61,-8.97,0,*71
1536372443.71,42003,17.25,74046.3,1.01,-9.49,-8.97,0,*7A
1536372444.93,42004,17.25,74044.5,1.01,-9.53,-9.01,0,*78
1536372446.17,42005,17.25,74044.0,1.01,-9.49,-9.11,0,*73
1536372447.39,42006,17.25,74042.8,1.01,-9.37,-9.01,0,*78
1536372448.62,42007,17.25,74044.8,1.01,-9.37,-8.89,0,*78
1536372449.83,42008,17.25,74044.3,1.01,-9.67,-9.37,0,*76
1536372451.05,42009,17.25,74044.0,1.01,-9.79,-9.41,0,*79
1536372452.27,42010,17.25,74042.0,1.01,-9.97,-9.53,0,*72
1536372453.46,42011,17.25,74046.5,1.01,-10.09,-9.67,0,*4B
1536372454.66,42012,17.25,74044.8,1.01,-10.31,-9.79,0,*4C
1536372455.86,42013,17.25,74044.0,1.01,-10.23,-9.79,0,*4E
1536372457.09,42014,17.25,74044.5,1.01,-10.35,-9.83,0,*4B
1536372458.28,42015,17.25,74042.0,1.01,-10.31,-9.67,0,*44
1536372459.5,42016,17.25,74044.8,1.01,-10.09,-9.53,0,*4B
1536372460.71,42017,17.25,74042.0,1.01,-10.35,-9.79,0,*4D
1536372461.93,42018,17.25,74040.8,1.03,-10.31,-9.71,0,*4C
1536372463.2,42019,17.25,74044.3,1.03,-9.83,-9.37,0,*7E
1536372464.42,42020,17.25,74042.5,1.01,-10.19,-9.61,0,*4E
1536372465.62,42021,17.25,74042.5,1.01,-10.23,-9.71,0,*47
1536372466.81,42022,17.25,74044.8,1.01,-10.09,-9.67,0,*4B
1536372468.02,42023,17.25,74046.0,1.01,-10.35,-9.71,0,*42
1536372469.24,42024,17.25,74046.0,1.01,-10.45,-9.83,0,*4F
1536372470.44,42025,17.25,74044.3,1.01,-10.49,-9.79,0,*47
1536372471.65,42026,17.25,74044.3,1.01,-10.05,-9.41,0,*47
1536372472.85,42027,17.25,74044.8,1.01,-10.31,-9.67,0,*45
1536372474.05,42028,17.25,74044.0,1.01,-10.31,-9.71,0,*4D
1536372475.27,42029,17.25,74042.5,0.97,-10.49,-9.83,0,*70
1536372476.5,42030,17.25,74040.5,1.03,-10.35,-9.71,0,*42
1536372477.72,42031,17.25,74044.8,1.01,-10.49,-9.83,0,*47
1536372478.97,42032,17.25,74044.5,0.99,-10.41,-9.71,0,*71
1536372480.22,42033,17.25,74042.5,0.99,-10.41,-9.75,0,*74
1536372481.42,42034,17.25,74042.3,0.97,-10.49,-9.89,0,*76
1536372482.64,42035,17.25,74046.0,0.99,-10.49,-9.75,0,*7A
1536372483.86,42036,17.25,74042.0,0.97,-10.41,-9.75,0,*7F
1536372485.08,42037,17.25,74040.8,0.99,-10.49,-9.89,0,*7B
1536372486.31,42038,17.25,74042.5,0.97,-10.41,-9.89,0,*72
1536372487.53,42039,17.25,74044.0,0.99,-10.35,-9.89,0,*7E
1536372488.75,42040,17.25,74044.3,0.99,-10.49,-9.89,0,*7B
1536372489.98,42041,17.25,74044.3,0.99,-10.35,-9.75,0,*72
1536372491.18,42042,17.25,74046.3,0.97,-10.15,-9.67,0,*7E
1536372492.4,42043,17.25,74044.0,0.99,-10.49,-9.89,0,*78
1536372493.63,42044,17.25,74044.8,0.99,-10.35,-9.67,0,*74
1536372494.85,42045,17.25,74046.8,0.99,-10.27,-9.71,0,*71
1536372496.05,42046,17.25,74044.5,0.97,-10.23,-9.67,0,*7F
1536372497.31,42047,17.25,74042.0,0.99,-10.15,-9.53,0,*72
1536372498.53,42048,17.25,74044.0,0.99,-10.15,-9.67,0,*7A
1536372499.78,42049,17.25,74044.0,0.99,-10.09,-9.45,0,*76
1536372500.99,42050,17.25,74040.3,0.99,-10.09,-9.67,0,*7E
1536372502.21,42051,17.25,74042.8,0.99,-9.97,-9.71,0,*47
1536372503.41,42052,17.25,74048.3,0.97,-9.89,-9.57,0,*41
1536372504.63,42053,17.25,74046.5,0.97,-9.75,-9.45,0,*40
1536372505.86,42054,17.25,74046.3,0.97,-9.83,-9.57,0,*4D